Year,Month,Day,Hour,Minute,Value (Times are PST for windspeed in km/hr)
2015,12,11,00,00,8.60
2015,12,11,00,01,8.80
2015,12,11,00,02,8.30
2015,12,11,00,03,3.20
2015,12,11,00,04,5.40
2015,12,11,00,05,6.60
2015,12,11,00,06,6.50
2015,12,11,00,07,8.40
2015,12,11,00,08,5.70
2015,12,11,00,09,5.20
2015,12,11,00,10,8.10
2015,12,11,00,11,10.90
2015,12,11,00,12,8.40
2015,12,11,00,13,6.70
2015,12,11,00,14,4.80
2015,12,11,00,15,8.50
2015,12,11,00,16,8.40
2015,12,11,00,17,10.40
2015,12,11,00,18,14.60
2015,12,11,00,19,9.10
2015,12,11,00,20,10.40
2015,12,11,00,21,11.40
2015,12,11,00,22,10.30
2015,12,11,00,23,10.30
2015,12,11,00,24,6.10
2015,12,11,00,25,10.20
2015,12,11,00,26,13.60
2015,12,11,00,27,15.40
2015,12,11,00,28,11.30
2015,12,11,00,29,9.40
2015,12,11,00,30,16.30
2015,12,11,00,31,11.70
2015,12,11,00,32,6.80
2015,12,11,00,33,8.20
2015,12,11,00,34,15.60
2015,12,11,00,35,12.60
2015,12,11,00,36,16.00
2015,12,11,00,37,12.30
2015,12,11,00,38,9.80
2015,12,11,00,39,6.10
2015,12,11,00,40,11.00
2015,12,11,00,41,11.00
2015,12,11,00,42,10.00
2015,12,11,00,43,10.90
2015,12,11,00,44,10.10
2015,12,11,00,45,14.80
2015,12,11,00,46,6.40
2015,12,11,00,47,9.70
2015,12,11,00,48,9.30
2015,12,11,00,49,19.00
2015,12,11,00,50,8.70
2015,12,11,00,51,7.70
2015,12,11,00,52,9.20
2015,12,11,00,53,6.80
2015,12,11,00,54,9.50
2015,12,11,00,55,6.80
2015,12,11,00,56,9.70
2015,12,11,00,57,5.20
2015,12,11,00,58,10.00
2015,12,11,00,59,6.10
2015,12,11,01,00,6.60
2015,12,11,01,01,11.40
2015,12,11,01,02,10.40
2015,12,11,01,03,11.70
2015,12,11,01,04,16.90
2015,12,11,01,05,5.70
2015,12,11,01,06,12.20
2015,12,11,01,07,8.70
2015,12,11,01,08,10.00
2015,12,11,01,09,13.50
2015,12,11,01,10,6.90
2015,12,11,01,11,12.40
2015,12,11,01,12,8.90
2015,12,11,01,13,5.30
2015,12,11,01,14,11.30
2015,12,11,01,15,10.20
2015,12,11,01,16,12.60
2015,12,11,01,17,8.80
2015,12,11,01,18,7.80
2015,12,11,01,19,6.30
2015,12,11,01,20,8.60
2015,12,11,01,21,2.60
2015,12,11,01,22,3.90
2015,12,11,01,23,10.20
2015,12,11,01,24,8.40
2015,12,11,01,25,7.50
2015,12,11,01,26,6.40
2015,12,11,01,27,5.80
2015,12,11,01,28,5.50
2015,12,11,01,29,6.70
2015,12,11,01,30,11.00
2015,12,11,01,31,7.50
2015,12,11,01,32,10.50
2015,12,11,01,33,7.50
2015,12,11,01,34,7.40
2015,12,11,01,35,12.00
2015,12,11,01,36,10.80
2015,12,11,01,37,4.20
2015,12,11,01,38,8.60
2015,12,11,01,39,10.30
2015,12,11,01,40,15.00
2015,12,11,01,41,7.80
2015,12,11,01,42,7.60
2015,12,11,01,43,11.70
2015,12,11,01,44,7.90
2015,12,11,01,45,8.80
2015,12,11,01,46,7.00
2015,12,11,01,47,10.90
2015,12,11,01,48,6.30
2015,12,11,01,49,7.40
2015,12,11,01,50,7.80
2015,12,11,01,51,9.70
2015,12,11,01,52,4.30
2015,12,11,01,53,3.00
2015,12,11,01,54,5.20
2015,12,11,01,55,2.90
2015,12,11,01,56,4.00
2015,12,11,01,57,3.50
2015,12,11,01,58,2.10
2015,12,11,01,59,2.10
2015,12,11,02,00,4.60
2015,12,11,02,01,6.40
2015,12,11,02,02,4.30
2015,12,11,02,03,6.60
2015,12,11,02,04,7.90
2015,12,11,02,05,12.40
2015,12,11,02,06,5.60
2015,12,11,02,07,7.10
2015,12,11,02,08,8.00
2015,12,11,02,09,7.30
2015,12,11,02,10,10.10
2015,12,11,02,11,8.10
2015,12,11,02,12,5.40
2015,12,11,02,13,5.50
2015,12,11,02,14,13.00
2015,12,11,02,15,8.10
2015,12,11,02,16,5.70
2015,12,11,02,17,8.50
2015,12,11,02,18,5.50
2015,12,11,02,19,7.20
2015,12,11,02,20,5.20
2015,12,11,02,21,5.80
2015,12,11,02,22,11.80
2015,12,11,02,23,10.10
2015,12,11,02,24,8.80
2015,12,11,02,25,6.80
2015,12,11,02,26,4.30
2015,12,11,02,27,3.30
2015,12,11,02,28,9.80
2015,12,11,02,29,8.60
2015,12,11,02,30,7.60
2015,12,11,02,31,2.60
2015,12,11,02,32,6.90
2015,12,11,02,33,7.40
2015,12,11,02,34,8.10
2015,12,11,02,35,10.00
2015,12,11,02,36,8.20
2015,12,11,02,37,7.60
2015,12,11,02,38,5.20
2015,12,11,02,39,8.10
2015,12,11,02,40,8.80
2015,12,11,02,41,4.90
2015,12,11,02,42,5.30
2015,12,11,02,43,5.30
2015,12,11,02,44,6.00
2015,12,11,02,45,5.00
2015,12,11,02,46,3.40
2015,12,11,02,47,4.90
2015,12,11,02,48,6.40
2015,12,11,02,49,6.90
2015,12,11,02,50,3.80
2015,12,11,02,51,6.30
2015,12,11,02,52,10.50
2015,12,11,02,53,5.30
2015,12,11,02,54,6.20
2015,12,11,02,55,5.30
2015,12,11,02,56,1.20
2015,12,11,02,57,4.90
2015,12,11,02,58,8.70
2015,12,11,02,59,3.90
2015,12,11,03,00,4.10
2015,12,11,03,01,5.40
2015,12,11,03,02,5.50
2015,12,11,03,03,4.00
2015,12,11,03,04,4.70
2015,12,11,03,05,8.80
2015,12,11,03,06,5.10
2015,12,11,03,07,9.20
2015,12,11,03,08,8.80
2015,12,11,03,09,4.40
2015,12,11,03,10,2.10
2015,12,11,03,11,1.80
2015,12,11,03,12,0.70
2015,12,11,03,13,2.60
2015,12,11,03,14,1.60
2015,12,11,03,15,2.70
2015,12,11,03,16,5.10
2015,12,11,03,17,8.60
2015,12,11,03,18,5.10
2015,12,11,03,19,5.70
2015,12,11,03,20,2.90
2015,12,11,03,21,2.40
2015,12,11,03,22,5.20
2015,12,11,03,23,7.00
2015,12,11,03,24,4.40
2015,12,11,03,25,5.90
2015,12,11,03,26,6.70
2015,12,11,03,27,3.90
2015,12,11,03,28,4.50
2015,12,11,03,29,4.60
2015,12,11,03,30,5.60
2015,12,11,03,31,3.50
2015,12,11,03,32,2.90
2015,12,11,03,33,1.40
2015,12,11,03,34,1.60
2015,12,11,03,35,3.60
2015,12,11,03,36,5.00
2015,12,11,03,37,6.60
2015,12,11,03,38,2.90
2015,12,11,03,39,6.60
2015,12,11,03,40,8.40
2015,12,11,03,41,3.00
2015,12,11,03,42,4.70
2015,12,11,03,43,1.80
2015,12,11,03,44,3.30
2015,12,11,03,45,2.10
2015,12,11,03,46,2.10
2015,12,11,03,47,9.80
2015,12,11,03,48,2.80
2015,12,11,03,49,5.80
2015,12,11,03,50,2.70
2015,12,11,03,51,2.20
2015,12,11,03,52,5.00
2015,12,11,03,53,12.30
2015,12,11,03,54,8.90
2015,12,11,03,55,7.70
2015,12,11,03,56,2.00
2015,12,11,03,57,7.10
2015,12,11,03,58,12.20
2015,12,11,03,59,8.20
2015,12,11,04,00,11.60
2015,12,11,04,01,3.80
2015,12,11,04,02,3.70
2015,12,11,04,03,3.90
2015,12,11,04,04,6.70
2015,12,11,04,05,5.50
2015,12,11,04,06,6.10
2015,12,11,04,07,3.60
2015,12,11,04,08,4.00
2015,12,11,04,09,8.10
2015,12,11,04,10,9.20
2015,12,11,04,11,5.30
2015,12,11,04,12,8.00
2015,12,11,04,13,7.50
2015,12,11,04,14,8.40
2015,12,11,04,15,5.40
2015,12,11,04,16,5.80
2015,12,11,04,17,3.90
2015,12,11,04,18,5.10
2015,12,11,04,19,6.10
2015,12,11,04,20,9.40
2015,12,11,04,21,8.80
2015,12,11,04,22,11.10
2015,12,11,04,23,7.00
2015,12,11,04,24,4.80
2015,12,11,04,25,4.90
2015,12,11,04,26,6.90
2015,12,11,04,27,5.60
2015,12,11,04,28,9.90
2015,12,11,04,29,7.50
2015,12,11,04,30,7.30
2015,12,11,04,31,4.80
2015,12,11,04,32,6.30
2015,12,11,04,33,7.30
2015,12,11,04,34,11.30
2015,12,11,04,35,3.90
2015,12,11,04,36,11.30
2015,12,11,04,37,16.50
2015,12,11,04,38,6.50
2015,12,11,04,39,8.30
2015,12,11,04,40,7.90
2015,12,11,04,41,11.60
2015,12,11,04,42,7.90
2015,12,11,04,43,11.90
2015,12,11,04,44,10.70
2015,12,11,04,45,13.60
2015,12,11,04,46,9.70
2015,12,11,04,47,7.60
2015,12,11,04,48,8.00
2015,12,11,04,49,10.80
2015,12,11,04,50,11.30
2015,12,11,04,51,6.90
2015,12,11,04,52,6.70
2015,12,11,04,53,11.10
2015,12,11,04,54,12.00
2015,12,11,04,55,8.90
2015,12,11,04,56,4.80
2015,12,11,04,57,3.50
2015,12,11,04,58,5.30
2015,12,11,04,59,7.20
2015,12,11,05,00,5.00
2015,12,11,05,01,4.90
2015,12,11,05,02,5.30
2015,12,11,05,03,7.20
2015,12,11,05,04,3.60
2015,12,11,05,05,4.50
2015,12,11,05,06,5.20
2015,12,11,05,07,5.70
2015,12,11,05,08,5.20
2015,12,11,05,09,4.90
2015,12,11,05,10,7.10
2015,12,11,05,11,4.70
2015,12,11,05,12,2.00
2015,12,11,05,13,3.30
2015,12,11,05,14,6.20
2015,12,11,05,15,2.90
2015,12,11,05,16,2.30
2015,12,11,05,17,9.30
2015,12,11,05,18,4.90
2015,12,11,05,19,2.00
2015,12,11,05,20,3.60
2015,12,11,05,21,5.40
2015,12,11,05,22,3.60
2015,12,11,05,23,4.50
2015,12,11,05,24,2.70
2015,12,11,05,25,2.10
2015,12,11,05,26,2.30
2015,12,11,05,27,4.00
2015,12,11,05,28,11.90
2015,12,11,05,29,8.00
2015,12,11,05,30,7.20
2015,12,11,05,31,3.90
2015,12,11,05,32,2.40
2015,12,11,05,33,3.60
2015,12,11,05,34,2.00
2015,12,11,05,35,6.50
2015,12,11,05,36,4.40
2015,12,11,05,37,2.60
2015,12,11,05,38,2.70
2015,12,11,05,39,3.00
2015,12,11,05,40,3.00
2015,12,11,05,41,2.70
2015,12,11,05,42,2.70
2015,12,11,05,43,1.30
2015,12,11,05,44,0.70
2015,12,11,05,45,4.50
2015,12,11,05,46,3.60
2015,12,11,05,47,2.60
2015,12,11,05,48,3.10
2015,12,11,05,49,2.50
2015,12,11,05,50,1.10
2015,12,11,05,51,3.60
2015,12,11,05,52,3.10
2015,12,11,05,53,2.60
2015,12,11,05,54,2.70
2015,12,11,05,55,3.50
2015,12,11,05,56,4.20
2015,12,11,05,57,2.20
2015,12,11,05,58,1.40
2015,12,11,05,59,3.60
2015,12,11,06,00,1.20
2015,12,11,06,01,1.20
2015,12,11,06,02,0.70
2015,12,11,06,03,1.20
2015,12,11,06,04,1.70
2015,12,11,06,05,3.20
2015,12,11,06,06,2.90
2015,12,11,06,07,1.60
2015,12,11,06,08,2.10
2015,12,11,06,09,3.10
2015,12,11,06,10,2.40
2015,12,11,06,11,1.30
2015,12,11,06,12,1.30
2015,12,11,06,13,0.60
2015,12,11,06,14,0.90
2015,12,11,06,15,1.90
2015,12,11,06,16,2.40
2015,12,11,06,17,1.60
2015,12,11,06,18,2.30
2015,12,11,06,19,2.40
2015,12,11,06,20,3.50
2015,12,11,06,21,7.50
2015,12,11,06,22,2.50
2015,12,11,06,23,2.40
2015,12,11,06,24,2.40
2015,12,11,06,25,4.80
2015,12,11,06,26,3.90
2015,12,11,06,27,8.20
2015,12,11,06,28,5.30
2015,12,11,06,29,6.30
2015,12,11,06,30,6.70
2015,12,11,06,31,5.40
2015,12,11,06,32,2.10
2015,12,11,06,33,3.90
2015,12,11,06,34,4.10
2015,12,11,06,35,5.00
2015,12,11,06,36,6.90
2015,12,11,06,37,4.40
2015,12,11,06,38,5.40
2015,12,11,06,39,3.90
2015,12,11,06,40,5.20
2015,12,11,06,41,2.70
2015,12,11,06,42,4.70
2015,12,11,06,43,4.60
2015,12,11,06,44,3.00
2015,12,11,06,45,3.70
2015,12,11,06,46,3.60
2015,12,11,06,47,2.50
2015,12,11,06,48,4.30
2015,12,11,06,49,3.10
2015,12,11,06,50,2.00
2015,12,11,06,51,1.00
2015,12,11,06,52,0.70
2015,12,11,06,53,2.30
2015,12,11,06,54,1.30
2015,12,11,06,55,1.30
2015,12,11,06,56,2.40
2015,12,11,06,57,2.50
2015,12,11,06,58,1.30
2015,12,11,06,59,1.70
2015,12,11,07,00,1.90
2015,12,11,07,01,3.60
2015,12,11,07,02,2.10
2015,12,11,07,03,2.70
2015,12,11,07,04,3.00
2015,12,11,07,05,2.60
2015,12,11,07,06,4.40
2015,12,11,07,07,2.30
2015,12,11,07,08,2.10
2015,12,11,07,09,4.30
2015,12,11,07,10,2.10
2015,12,11,07,11,1.60
2015,12,11,07,12,2.60
2015,12,11,07,13,4.90
2015,12,11,07,14,3.90
2015,12,11,07,15,4.20
2015,12,11,07,16,2.20
2015,12,11,07,17,3.20
2015,12,11,07,18,4.20
2015,12,11,07,19,2.50
2015,12,11,07,20,4.80
2015,12,11,07,21,5.80
2015,12,11,07,22,5.40
2015,12,11,07,23,4.50
2015,12,11,07,24,3.30
2015,12,11,07,25,3.30
2015,12,11,07,26,4.20
2015,12,11,07,27,4.80
2015,12,11,07,28,2.70
2015,12,11,07,29,2.80
2015,12,11,07,30,1.60
2015,12,11,07,31,1.20
2015,12,11,07,32,1.60
2015,12,11,07,33,1.60
2015,12,11,07,34,1.30
2015,12,11,07,35,3.00
2015,12,11,07,36,1.70
2015,12,11,07,37,2.50
2015,12,11,07,38,1.70
2015,12,11,07,39,4.50
2015,12,11,07,40,3.70
2015,12,11,07,41,5.50
2015,12,11,07,42,3.10
2015,12,11,07,43,4.60
2015,12,11,07,44,4.00
2015,12,11,07,45,2.70
2015,12,11,07,46,7.30
2015,12,11,07,47,7.40
2015,12,11,07,48,5.10
2015,12,11,07,49,9.20
2015,12,11,07,50,8.30
2015,12,11,07,51,8.50
2015,12,11,07,52,6.70
2015,12,11,07,53,8.20
2015,12,11,07,54,9.40
2015,12,11,07,55,9.10
2015,12,11,07,56,8.00
2015,12,11,07,57,5.10
2015,12,11,07,58,8.90
2015,12,11,07,59,7.90
2015,12,11,08,00,7.00
2015,12,11,08,01,6.10
2015,12,11,08,02,3.10
2015,12,11,08,03,4.30
2015,12,11,08,04,3.50
2015,12,11,08,05,4.60
2015,12,11,08,06,5.90
2015,12,11,08,07,6.40
2015,12,11,08,08,7.60
2015,12,11,08,09,6.90
2015,12,11,08,10,6.00
2015,12,11,08,11,8.10
2015,12,11,08,12,7.50
2015,12,11,08,13,4.80
2015,12,11,08,14,4.90
2015,12,11,08,15,6.10
2015,12,11,08,16,3.00
2015,12,11,08,17,3.00
2015,12,11,08,18,5.00
2015,12,11,08,19,6.40
2015,12,11,08,20,3.30
2015,12,11,08,21,1.70
2015,12,11,08,22,2.30
2015,12,11,08,23,5.10
2015,12,11,08,24,2.60
2015,12,11,08,25,1.40
2015,12,11,08,26,1.40
2015,12,11,08,27,2.30
2015,12,11,08,28,1.20
2015,12,11,08,29,2.00
2015,12,11,08,30,0.20
2015,12,11,08,31,0.70
2015,12,11,08,32,1.10
2015,12,11,08,33,0.10
2015,12,11,08,34,0.00
2015,12,11,08,35,0.00
2015,12,11,08,36,0.00
2015,12,11,08,37,0.00
2015,12,11,08,38,0.00
2015,12,11,08,39,0.00
2015,12,11,08,40,0.00
2015,12,11,08,41,0.00
2015,12,11,08,42,0.00
2015,12,11,08,43,0.00
2015,12,11,08,44,0.00
2015,12,11,08,45,0.00
2015,12,11,08,46,0.00
2015,12,11,08,47,0.00
2015,12,11,08,48,0.00
2015,12,11,08,49,0.00
2015,12,11,08,50,0.00
2015,12,11,08,51,0.00
2015,12,11,08,52,0.00
2015,12,11,08,53,0.00
2015,12,11,08,54,0.00
2015,12,11,08,55,0.00
2015,12,11,08,56,0.00
2015,12,11,08,57,0.00
2015,12,11,08,58,0.00
2015,12,11,08,59,0.00
2015,12,11,09,00,0.00
2015,12,11,09,01,0.20
2015,12,11,09,02,2.30
2015,12,11,09,03,1.20
2015,12,11,09,04,0.00
2015,12,11,09,05,1.30
2015,12,11,09,06,0.70
2015,12,11,09,07,0.00
2015,12,11,09,08,0.50
2015,12,11,09,09,0.50
2015,12,11,09,10,0.10
2015,12,11,09,11,1.10
2015,12,11,09,12,1.70
2015,12,11,09,13,1.10
2015,12,11,09,14,2.60
2015,12,11,09,15,2.00
2015,12,11,09,16,2.10
2015,12,11,09,17,2.50
2015,12,11,09,18,1.50
2015,12,11,09,19,1.20
2015,12,11,09,20,0.40
2015,12,11,09,21,0.50
2015,12,11,09,22,0.00
2015,12,11,09,23,0.40
2015,12,11,09,24,0.50
2015,12,11,09,25,0.00
2015,12,11,09,26,0.00
2015,12,11,09,27,0.00
2015,12,11,09,28,0.00
2015,12,11,09,29,0.00
2015,12,11,09,30,0.00
2015,12,11,09,31,0.00
2015,12,11,09,32,0.00
2015,12,11,09,33,0.90
2015,12,11,09,34,2.60
2015,12,11,09,35,0.50
2015,12,11,09,36,1.10
2015,12,11,09,37,0.70
2015,12,11,09,38,1.00
2015,12,11,09,39,1.60
2015,12,11,09,40,0.70
2015,12,11,09,41,1.40
2015,12,11,09,42,2.50
2015,12,11,09,43,2.30
2015,12,11,09,44,2.50
2015,12,11,09,45,0.80
2015,12,11,09,46,2.00
2015,12,11,09,47,0.00
2015,12,11,09,48,0.00
2015,12,11,09,49,0.50
2015,12,11,09,50,0.40
2015,12,11,09,51,1.70
2015,12,11,09,52,0.50
2015,12,11,09,53,0.10
2015,12,11,09,54,0.50
2015,12,11,09,55,0.00
2015,12,11,09,56,0.10
2015,12,11,09,57,0.90
2015,12,11,09,58,1.60
2015,12,11,09,59,1.90
2015,12,11,10,00,2.20
2015,12,11,10,01,1.60
2015,12,11,10,02,1.00
2015,12,11,10,03,0.60
2015,12,11,10,04,1.10
2015,12,11,10,05,0.20
2015,12,11,10,06,0.80
2015,12,11,10,07,0.60
2015,12,11,10,08,0.50
2015,12,11,10,09,1.30
2015,12,11,10,10,1.80
2015,12,11,10,11,0.20
2015,12,11,10,12,0.00
2015,12,11,10,13,0.00
2015,12,11,10,14,0.00
2015,12,11,10,15,0.70
2015,12,11,10,16,0.40
2015,12,11,10,17,0.00
2015,12,11,10,18,0.80
2015,12,11,10,19,1.00
2015,12,11,10,20,0.10
2015,12,11,10,21,0.10
2015,12,11,10,22,0.70
2015,12,11,10,23,0.00
2015,12,11,10,24,0.10
2015,12,11,10,25,0.00
2015,12,11,10,26,0.20
2015,12,11,10,27,0.00
2015,12,11,10,28,0.00
2015,12,11,10,29,0.00
2015,12,11,10,30,0.00
2015,12,11,10,31,0.00
2015,12,11,10,32,0.00
2015,12,11,10,33,0.00
2015,12,11,10,34,0.00
2015,12,11,10,35,0.00
2015,12,11,10,36,0.00
2015,12,11,10,37,0.00
2015,12,11,10,38,0.00
2015,12,11,10,39,0.10
2015,12,11,10,40,0.90
2015,12,11,10,41,0.20
2015,12,11,10,42,0.00
2015,12,11,10,43,0.00
2015,12,11,10,44,0.10
2015,12,11,10,45,0.10
2015,12,11,10,46,0.00
2015,12,11,10,47,0.50
2015,12,11,10,48,1.70
2015,12,11,10,49,1.60
2015,12,11,10,50,0.10
2015,12,11,10,51,1.10
2015,12,11,10,52,2.10
2015,12,11,10,53,1.20
2015,12,11,10,54,4.50
2015,12,11,10,55,4.80
2015,12,11,10,56,4.60
2015,12,11,10,57,2.60
2015,12,11,10,58,2.10
2015,12,11,10,59,3.80
2015,12,11,11,00,2.60
2015,12,11,11,01,1.70
2015,12,11,11,02,3.30
2015,12,11,11,03,3.20
2015,12,11,11,04,4.50
2015,12,11,11,05,3.10
2015,12,11,11,06,4.80
2015,12,11,11,07,5.50
2015,12,11,11,08,3.30
2015,12,11,11,09,3.10
2015,12,11,11,10,1.90
2015,12,11,11,11,1.40
2015,12,11,11,12,0.50
2015,12,11,11,13,1.70
2015,12,11,11,14,4.30
2015,12,11,11,15,2.40
2015,12,11,11,16,4.20
2015,12,11,11,17,4.30
2015,12,11,11,18,2.80
2015,12,11,11,19,3.00
2015,12,11,11,20,3.00
2015,12,11,11,21,3.60
2015,12,11,11,22,5.10
2015,12,11,11,23,2.50
2015,12,11,11,24,1.70
2015,12,11,11,25,3.10
2015,12,11,11,26,1.60
2015,12,11,11,27,2.00
2015,12,11,11,28,2.30
2015,12,11,11,29,2.10
2015,12,11,11,30,1.60
2015,12,11,11,31,1.50
2015,12,11,11,32,1.70
2015,12,11,11,33,2.60
2015,12,11,11,34,0.70
2015,12,11,11,35,0.40
2015,12,11,11,36,1.60
2015,12,11,11,37,2.40
2015,12,11,11,38,2.30
2015,12,11,11,39,2.30
2015,12,11,11,40,2.70
2015,12,11,11,41,0.80
2015,12,11,11,42,1.30
2015,12,11,11,43,2.10
2015,12,11,11,44,1.30
2015,12,11,11,45,0.40
2015,12,11,11,46,1.00
2015,12,11,11,47,2.00
2015,12,11,11,48,1.90
2015,12,11,11,49,1.30
2015,12,11,11,50,0.60
2015,12,11,11,51,0.90
2015,12,11,11,52,1.20
2015,12,11,11,53,0.70
2015,12,11,11,54,1.40
2015,12,11,11,55,1.10
2015,12,11,11,56,1.10
2015,12,11,11,57,1.60
2015,12,11,11,58,2.10
2015,12,11,11,59,1.50
2015,12,11,12,00,1.60
2015,12,11,12,01,1.10
2015,12,11,12,02,1.00
2015,12,11,12,03,2.90
2015,12,11,12,04,0.50
2015,12,11,12,05,2.00
2015,12,11,12,06,3.00
2015,12,11,12,07,2.70
2015,12,11,12,08,2.70
2015,12,11,12,09,2.30
2015,12,11,12,10,1.90
2015,12,11,12,11,1.10
2015,12,11,12,12,0.40
2015,12,11,12,13,0.70
2015,12,11,12,14,2.20
2015,12,11,12,15,2.10
2015,12,11,12,16,2.80
2015,12,11,12,17,2.70
2015,12,11,12,18,0.70
2015,12,11,12,19,1.80
2015,12,11,12,20,1.70
2015,12,11,12,21,1.20
2015,12,11,12,22,1.50
2015,12,11,12,23,0.10
2015,12,11,12,24,0.60
2015,12,11,12,25,2.40
2015,12,11,12,26,2.00
2015,12,11,12,27,2.10
2015,12,11,12,28,2.60
2015,12,11,12,29,2.00
2015,12,11,12,30,2.50
2015,12,11,12,31,2.10
2015,12,11,12,32,1.90
2015,12,11,12,33,2.10
2015,12,11,12,34,1.60
2015,12,11,12,35,2.20
2015,12,11,12,36,3.20
2015,12,11,12,37,2.10
2015,12,11,12,38,1.30
2015,12,11,12,39,2.40
2015,12,11,12,40,1.80
2015,12,11,12,41,1.10
2015,12,11,12,42,1.70
2015,12,11,12,43,3.70
2015,12,11,12,44,3.70
2015,12,11,12,45,4.10
2015,12,11,12,46,2.60
2015,12,11,12,47,1.70
2015,12,11,12,48,2.00
2015,12,11,12,49,3.90
2015,12,11,12,50,2.60
2015,12,11,12,51,2.00
2015,12,11,12,52,1.40
2015,12,11,12,53,2.00
2015,12,11,12,54,2.20
2015,12,11,12,55,1.70
2015,12,11,12,56,1.90
2015,12,11,12,57,3.40
2015,12,11,12,58,4.50
2015,12,11,12,59,3.10
2015,12,11,13,00,2.10
2015,12,11,13,01,4.90
2015,12,11,13,02,1.60
2015,12,11,13,03,1.10
2015,12,11,13,04,2.00
2015,12,11,13,05,2.00
2015,12,11,13,06,1.00
2015,12,11,13,07,2.40
2015,12,11,13,08,1.90
2015,12,11,13,09,1.40
2015,12,11,13,10,0.80
2015,12,11,13,11,0.10
2015,12,11,13,12,0.10
2015,12,11,13,13,1.50
2015,12,11,13,14,2.10
2015,12,11,13,15,2.60
2015,12,11,13,16,2.40
2015,12,11,13,17,1.50
2015,12,11,13,18,0.80
2015,12,11,13,19,2.30
2015,12,11,13,20,3.40
2015,12,11,13,21,2.10
2015,12,11,13,22,4.30
2015,12,11,13,23,3.40
2015,12,11,13,24,2.00
2015,12,11,13,25,1.10
2015,12,11,13,26,0.50
2015,12,11,13,27,4.00
2015,12,11,13,28,3.00
2015,12,11,13,29,2.70
2015,12,11,13,30,1.70
2015,12,11,13,31,2.00
2015,12,11,13,32,1.70
2015,12,11,13,33,2.70
2015,12,11,13,34,2.20
2015,12,11,13,35,2.00
2015,12,11,13,36,1.10
2015,12,11,13,37,0.10
2015,12,11,13,38,0.20
2015,12,11,13,39,1.70
2015,12,11,13,40,2.80
2015,12,11,13,41,2.60
2015,12,11,13,42,2.30
2015,12,11,13,43,2.30
2015,12,11,13,44,1.70
2015,12,11,13,45,0.80
2015,12,11,13,46,0.70
2015,12,11,13,47,1.00
2015,12,11,13,48,1.60
2015,12,11,13,49,1.10
2015,12,11,13,50,2.00
2015,12,11,13,51,1.80
2015,12,11,13,52,1.00
2015,12,11,13,53,0.80
2015,12,11,13,54,1.70
2015,12,11,13,55,2.10
2015,12,11,13,56,2.90
2015,12,11,13,57,1.90
2015,12,11,13,58,2.10
2015,12,11,13,59,2.00
2015,12,11,14,00,0.00
2015,12,11,14,01,0.10
2015,12,11,14,02,1.20
2015,12,11,14,03,1.60
2015,12,11,14,04,0.70
2015,12,11,14,05,0.10
2015,12,11,14,06,2.20
2015,12,11,14,07,4.00
2015,12,11,14,08,2.70
2015,12,11,14,09,0.60
2015,12,11,14,10,0.00
2015,12,11,14,11,0.00
2015,12,11,14,12,0.00
2015,12,11,14,13,0.00
2015,12,11,14,14,0.70
2015,12,11,14,15,5.00
2015,12,11,14,16,3.90
2015,12,11,14,17,2.00
2015,12,11,14,18,3.90
2015,12,11,14,19,2.40
2015,12,11,14,20,2.70
2015,12,11,14,21,2.70
2015,12,11,14,22,3.40
2015,12,11,14,23,3.30
2015,12,11,14,24,3.90
2015,12,11,14,25,3.00
2015,12,11,14,26,4.40
2015,12,11,14,27,2.30
2015,12,11,14,28,1.40
2015,12,11,14,29,0.00
2015,12,11,14,30,2.70
2015,12,11,14,31,2.40
2015,12,11,14,32,2.30
2015,12,11,14,33,0.90
2015,12,11,14,34,0.40
2015,12,11,14,35,1.90
2015,12,11,14,36,0.60
2015,12,11,14,37,0.10
2015,12,11,14,38,1.30
2015,12,11,14,39,0.30
2015,12,11,14,40,0.10
2015,12,11,14,41,0.20
2015,12,11,14,42,0.00
2015,12,11,14,43,0.00
2015,12,11,14,44,1.20
2015,12,11,14,45,1.20
2015,12,11,14,46,0.00
2015,12,11,14,47,0.00
2015,12,11,14,48,0.00
2015,12,11,14,49,0.00
2015,12,11,14,50,0.70
2015,12,11,14,51,0.00
2015,12,11,14,52,0.00
2015,12,11,14,53,0.00
2015,12,11,14,54,0.00
2015,12,11,14,55,0.00
2015,12,11,14,56,0.00
2015,12,11,14,57,0.00
2015,12,11,14,58,0.00
2015,12,11,14,59,0.00
2015,12,11,15,00,0.00
2015,12,11,15,01,0.00
2015,12,11,15,02,0.00
2015,12,11,15,03,0.00
2015,12,11,15,04,0.00
2015,12,11,15,05,0.00
2015,12,11,15,06,0.00
2015,12,11,15,07,0.00
2015,12,11,15,08,0.00
2015,12,11,15,09,0.00
2015,12,11,15,10,0.00
2015,12,11,15,11,0.00
2015,12,11,15,12,0.00
2015,12,11,15,13,0.00
2015,12,11,15,14,0.00
2015,12,11,15,15,0.00
2015,12,11,15,16,0.00
2015,12,11,15,17,0.00
2015,12,11,15,18,0.00
2015,12,11,15,19,0.00
2015,12,11,15,20,0.00
2015,12,11,15,21,0.00
2015,12,11,15,22,0.00
2015,12,11,15,23,0.00
2015,12,11,15,24,0.00
2015,12,11,15,25,0.00
2015,12,11,15,26,0.00
2015,12,11,15,27,0.00
2015,12,11,15,28,0.00
2015,12,11,15,29,0.00
2015,12,11,15,30,0.00
2015,12,11,15,31,0.00
2015,12,11,15,32,0.00
2015,12,11,15,33,0.00
2015,12,11,15,34,0.00
2015,12,11,15,35,0.00
2015,12,11,15,36,0.00
2015,12,11,15,37,0.00
2015,12,11,15,38,0.00
2015,12,11,15,39,0.00
2015,12,11,15,40,0.00
2015,12,11,15,41,0.00
2015,12,11,15,42,0.00
2015,12,11,15,43,0.00
2015,12,11,15,44,0.00
2015,12,11,15,45,0.00
2015,12,11,15,46,0.00
2015,12,11,15,47,0.00
2015,12,11,15,48,0.00
2015,12,11,15,49,0.00
2015,12,11,15,50,0.00
2015,12,11,15,51,0.00
2015,12,11,15,52,0.00
2015,12,11,15,53,0.00
2015,12,11,15,54,0.00
2015,12,11,15,55,0.00
2015,12,11,15,56,0.00
2015,12,11,15,57,0.00
2015,12,11,15,58,0.00
2015,12,11,15,59,0.00
2015,12,11,16,00,0.00
2015,12,11,16,01,0.00
2015,12,11,16,02,0.00
2015,12,11,16,03,0.00
2015,12,11,16,04,0.00
2015,12,11,16,05,0.00
2015,12,11,16,06,0.00
2015,12,11,16,07,0.00
2015,12,11,16,08,0.00
2015,12,11,16,09,0.00
2015,12,11,16,10,0.00
2015,12,11,16,11,0.00
2015,12,11,16,12,0.00
2015,12,11,16,13,0.00
2015,12,11,16,14,0.00
2015,12,11,16,15,0.00
2015,12,11,16,16,0.00
2015,12,11,16,17,0.00
2015,12,11,16,18,0.00
2015,12,11,16,19,0.00
2015,12,11,16,20,0.00
2015,12,11,16,21,0.00
2015,12,11,16,22,0.00
2015,12,11,16,23,0.00
2015,12,11,16,24,0.00
2015,12,11,16,25,0.00
2015,12,11,16,26,0.00
2015,12,11,16,27,0.00
2015,12,11,16,28,0.00
2015,12,11,16,29,0.00
2015,12,11,16,30,0.00
2015,12,11,16,31,0.00
2015,12,11,16,32,0.00
2015,12,11,16,33,0.00
2015,12,11,16,34,0.00
2015,12,11,16,35,0.00
2015,12,11,16,36,0.00
2015,12,11,16,37,0.00
2015,12,11,16,38,0.00
2015,12,11,16,39,0.00
2015,12,11,16,40,0.00
2015,12,11,16,41,0.00
2015,12,11,16,42,0.00
2015,12,11,16,43,0.00
2015,12,11,16,44,0.00
2015,12,11,16,45,0.00
2015,12,11,16,46,0.00
2015,12,11,16,47,0.00
2015,12,11,16,48,0.00
2015,12,11,16,49,0.00
2015,12,11,16,50,0.00
2015,12,11,16,51,0.00
2015,12,11,16,52,0.00
2015,12,11,16,53,0.00
2015,12,11,16,54,0.00
2015,12,11,16,55,0.00
2015,12,11,16,56,0.00
2015,12,11,16,57,0.00
2015,12,11,16,58,0.00
2015,12,11,16,59,0.00
2015,12,11,17,00,0.00
2015,12,11,17,01,0.00
2015,12,11,17,02,0.00
2015,12,11,17,03,0.00
2015,12,11,17,04,0.00
2015,12,11,17,05,0.00
2015,12,11,17,06,0.00
2015,12,11,17,07,0.00
2015,12,11,17,08,0.00
2015,12,11,17,09,0.00
2015,12,11,17,10,0.00
2015,12,11,17,11,0.00
2015,12,11,17,12,0.00
2015,12,11,17,13,0.00
2015,12,11,17,14,0.00
2015,12,11,17,15,0.00
2015,12,11,17,16,0.00
2015,12,11,17,17,0.00
2015,12,11,17,18,0.00
2015,12,11,17,19,0.00
2015,12,11,17,20,0.00
2015,12,11,17,21,0.00
2015,12,11,17,22,0.00
2015,12,11,17,23,0.00
2015,12,11,17,24,0.00
2015,12,11,17,25,0.00
2015,12,11,17,26,0.00
2015,12,11,17,27,0.00
2015,12,11,17,28,0.00
2015,12,11,17,29,0.00
2015,12,11,17,30,0.00
2015,12,11,17,31,0.00
2015,12,11,17,32,0.00
2015,12,11,17,33,0.00
2015,12,11,17,34,0.00
2015,12,11,17,35,0.00
2015,12,11,17,36,0.00
2015,12,11,17,37,0.00
2015,12,11,17,38,0.00
2015,12,11,17,39,0.00
2015,12,11,17,40,0.00
2015,12,11,17,41,0.00
2015,12,11,17,42,0.00
2015,12,11,17,43,0.00
2015,12,11,17,44,0.00
2015,12,11,17,45,0.00
2015,12,11,17,46,0.00
2015,12,11,17,47,0.00
2015,12,11,17,48,0.00
2015,12,11,17,49,0.00
2015,12,11,17,50,0.00
2015,12,11,17,51,0.00
2015,12,11,17,52,0.00
2015,12,11,17,53,0.00
2015,12,11,17,54,0.00
2015,12,11,17,55,0.00
2015,12,11,17,56,0.00
2015,12,11,17,57,0.00
2015,12,11,17,58,0.00
2015,12,11,17,59,0.00
2015,12,11,18,00,0.00
2015,12,11,18,01,0.00
2015,12,11,18,02,0.00
2015,12,11,18,03,0.00